Weather History for KASJ - August, 2014

Change the Weather History Date:

Monday, August 18, 2014

  Actual Average (KEMV) Record (KEMV)
Temperature  
Mean Temperature 76 °F -  
Max Temperature 85 °F 88 °F 100 °F (1988)
Min Temperature 67 °F 67 °F 60 °F (1982)
Cooling Degree Days 11    
Growing Degree Days 26 (Base 50)    
Moisture  
Dew Point 70 °F    
Average Humidity 87    
Maximum Humidity 96    
Minimum Humidity 65    
Precipitation  
Precipitation 0.08 in - - ()
Sea Level Pressure  
Sea Level Pressure 29.88 in    
Wind  
Wind Speed 1 mph (SE)    
Max Wind Speed 9 mph    
Max Gust Speed -    
Visibility 8 miles    
Events      
Averages and records for this station are not official NWS values.
T = Trace of Precipitation, MM = Missing Value Source: NWS Daily Summary

Daily Weather History Graph

Daily Weather History Graph

Search for Another Location

Airport or City:

Trip Planner

Search our weather history database for the weather conditions in past years. The results will help you decide how hot, cold, wet, or windy it might be!

Date:

Astronomy

Aug. 18, 2014 Rise Set
Actual Time 6:29 AM EDT 7:55 PM EDT
Civil Twilight 6:01 AM EDT 8:22 PM EDT
Nautical Twilight 5:29 AM EDT 8:54 PM EDT
Astronomical Twilight 4:55 AM EDT 9:28 PM EDT
Moon 12:36 AM EDT (8/18) 2:54 PM EDT (8/18)
Length of Visible Light 14h 20m
Length of Day
13h 26m
Last Quarter, 38% of the Moon is Illuminated
Aug 18
Last Quarter
Aug 25
New
Sep 2
First Quarter
Sep 8
Full
Sep 15
Last Quarter

Hourly Weather History & Observations

Time (EDT) Temp. Heat Index Dew Point Humidity Pressure Visibility Wind Dir Wind Speed Gust Speed Precip Events Conditions
12:15 AM 68.7 °F - 67.1 °F 95% 29.95 in 7.0 mi Calm Calm - N/A   Clear
12:35 AM 68.2 °F - 66.9 °F 96% 29.95 in 5.0 mi Calm Calm - N/A   Clear
12:55 AM 68.4 °F - 66.9 °F 95% 29.94 in 5.0 mi Calm Calm - N/A   Clear
1:15 AM 67.8 °F - 66.6 °F 96% 29.94 in 5.0 mi Calm Calm - N/A   Clear
1:35 AM 67.5 °F - 66.4 °F 96% 29.93 in 5.0 mi Calm Calm - N/A   Clear
1:55 AM 67.8 °F - 66.2 °F 95% 29.93 in - Calm Calm - N/A   Unknown
2:15 AM 67.6 °F - 66.2 °F 95% 29.93 in 7.0 mi Calm Calm - N/A   Clear
2:35 AM 68.2 °F - 66.6 °F 95% 29.92 in 5.0 mi Calm Calm - N/A   Clear
2:55 AM 68.0 °F - 66.4 °F 95% 29.92 in 5.0 mi Calm Calm - N/A   Clear
3:15 AM 67.6 °F - 66.4 °F 96% 29.92 in 5.0 mi Calm Calm - N/A   Clear
3:35 AM 67.1 °F - 65.8 °F 96% 29.92 in 4.0 mi Calm Calm - N/A   Scattered Clouds
3:55 AM 67.3 °F - 66.2 °F 96% 29.91 in 4.0 mi Calm Calm - N/A   Mostly Cloudy
4:15 AM 68.0 °F - 66.7 °F 96% 29.92 in 5.0 mi Calm Calm - N/A   Overcast
4:35 AM 68.4 °F - 66.9 °F 95% 29.91 in 7.0 mi Calm Calm - N/A   Scattered Clouds
5:15 AM 68.9 °F - 67.3 °F 95% 29.92 in 7.0 mi Calm Calm - N/A   Mostly Cloudy
5:35 AM 68.9 °F - 67.1 °F 94% 29.92 in 7.0 mi Calm Calm - N/A   Scattered Clouds
5:55 AM 68.9 °F - 67.3 °F 95% 29.92 in 7.0 mi Calm Calm - N/A   Scattered Clouds
6:15 AM 68.7 °F - 67.3 °F 95% 29.92 in 5.0 mi Calm Calm - N/A   Clear
6:35 AM 68.0 °F - 66.7 °F 96% 29.92 in 3.0 mi Calm Calm - N/A   Scattered Clouds
6:55 AM 68.2 °F - 67.1 °F 96% 29.92 in 3.0 mi Calm Calm - N/A   Scattered Clouds
7:15 AM 68.9 °F - 67.5 °F 95% 29.93 in 4.0 mi Calm Calm - N/A   Clear
7:35 AM 69.8 °F - 68.0 °F 94% 29.92 in 5.0 mi Calm Calm - N/A   Clear
7:55 AM 70.9 °F - 68.9 °F 93% 29.92 in 7.0 mi Calm Calm - N/A   Clear
8:15 AM 71.6 °F - 69.1 °F 92% 29.92 in 7.0 mi Calm Calm - N/A   Clear
8:35 AM 73.0 °F - 70.2 °F 91% 29.92 in 7.0 mi Calm Calm - N/A   Clear
8:55 AM 74.5 °F - 70.9 °F 88% 29.92 in 10.0 mi Calm Calm - N/A   Clear
9:15 AM 76.3 °F - 72.1 °F 87% 29.91 in 10.0 mi Calm Calm - N/A   Clear
9:35 AM 77.0 °F - 71.4 °F 83% 29.91 in 10.0 mi Calm Calm - N/A   Clear
9:55 AM 78.8 °F - 71.6 °F 78% 29.91 in 10.0 mi Calm Calm - N/A   Clear
10:15 AM 80.6 °F 84.7 °F 72.0 °F 75% 29.91 in 10.0 mi Calm Calm - N/A   Clear
10:35 AM 81.5 °F 85.9 °F 71.6 °F 72% 29.91 in 10.0 mi Calm Calm - N/A   Clear
10:55 AM 82.9 °F 88.3 °F 72.3 °F 70% 29.91 in 10.0 mi Calm Calm - N/A   Scattered Clouds
11:15 AM 83.3 °F 89.0 °F 72.7 °F 70% 29.90 in 10.0 mi SSE 4.6 mph - N/A   Clear
11:35 AM 83.3 °F 88.7 °F 72.3 °F 69% 29.90 in 10.0 mi East 3.5 mph - N/A   Scattered Clouds
11:55 AM 84.0 °F 90.2 °F 72.7 °F 69% 29.90 in 10.0 mi ESE 4.6 mph - N/A   Clear
12:15 PM 84.7 °F 90.4 °F 72.0 °F 65% 29.89 in 10.0 mi SSE 5.8 mph - N/A   Clear
12:35 PM 85.1 °F 91.1 °F 72.0 °F 65% 29.88 in 10.0 mi Calm Calm - N/A   Clear
12:55 PM 84.4 °F 90.3 °F 72.3 °F 67% 29.88 in 10.0 mi SSE 4.6 mph - N/A   Clear
1:15 PM 84.4 °F 90.6 °F 72.7 °F 68% 29.87 in 10.0 mi SSE 5.8 mph - N/A   Clear
1:35 PM 84.4 °F 91.0 °F 73.0 °F 69% 29.86 in 10.0 mi SE 4.6 mph - N/A   Clear
1:55 PM 83.8 °F 89.8 °F 72.7 °F 69% 29.86 in 10.0 mi SSE 4.6 mph - N/A   Scattered Clouds
2:15 PM 83.7 °F 90.1 °F 73.4 °F 71% 29.86 in 10.0 mi SSE 3.5 mph - N/A   Clear
2:35 PM 83.5 °F 90.3 °F 73.9 °F 73% 29.85 in 10.0 mi SE 3.5 mph - N/A   Clear
2:55 PM 82.8 °F 89.8 °F 74.8 °F 77% 29.84 in 10.0 mi Calm Calm - N/A   Clear
3:15 PM 80.2 °F 86.1 °F 76.6 °F 89% 29.84 in 7.0 mi Calm Calm - N/A   Clear
3:35 PM 80.1 °F 85.8 °F 77.0 °F 90% 29.83 in 5.0 mi Calm Calm - N/A   Clear
3:55 PM 80.1 °F 86.0 °F 77.2 °F 91% 29.82 in 7.0 mi NNW 3.5 mph - 0.01 in   Clear
4:15 PM 79.7 °F - 76.3 °F 89% 29.81 in 7.0 mi NNW 3.5 mph - N/A   Clear
4:35 PM 78.8 °F - 75.2 °F 89% 29.82 in 10.0 mi North 9.2 mph - N/A   Scattered Clouds
4:55 PM 77.2 °F - 72.9 °F 86% 29.83 in 10.0 mi North 6.9 mph - N/A   Scattered Clouds
5:15 PM 76.3 °F - 71.6 °F 85% 29.83 in 10.0 mi North 5.8 mph - N/A   Scattered Clouds
5:35 PM 76.3 °F - 70.7 °F 83% 29.83 in 10.0 mi North 4.6 mph - N/A   Scattered Clouds
5:55 PM 76.1 °F - 70.9 °F 84% 29.83 in 10.0 mi North 3.5 mph - N/A   Scattered Clouds
6:15 PM 75.7 °F - 71.4 °F 86% 29.83 in 10.0 mi Calm Calm - N/A   Clear
6:35 PM 75.4 °F - 71.6 °F 88% 29.83 in 10.0 mi ESE 3.5 mph - N/A   Scattered Clouds
6:55 PM 75.2 °F - 71.8 °F 89% 29.82 in 10.0 mi Calm Calm - N/A   Scattered Clouds
7:15 PM 75.4 °F - 72.1 °F 90% 29.82 in 10.0 mi Calm Calm - N/A   Scattered Clouds
7:35 PM 75.0 °F - 71.6 °F 89% 29.83 in 10.0 mi SE 4.6 mph - N/A   Clear
7:55 PM 73.8 °F - 71.1 °F 91% 29.83 in 10.0 mi Calm Calm - 0.01 in   Scattered Clouds
8:15 PM 73.0 °F - 70.7 °F 92% 29.83 in 10.0 mi SE 4.6 mph - 0.01 in   Clear
8:35 PM 72.5 °F - 70.7 °F 94% 29.83 in 10.0 mi SSE 5.8 mph - 0.01 in   Clear
8:55 PM 72.0 °F - 70.3 °F 95% 29.83 in 7.0 mi SSE 5.8 mph - 0.02 in   Scattered Clouds
9:15 PM 72.1 °F - 70.2 °F 93% 29.81 in 10.0 mi ESE 5.8 mph - N/A   Clear
9:35 PM 71.8 °F - 70.3 °F 95% 29.82 in 7.0 mi Calm Calm - N/A   Clear
9:55 PM 71.8 °F - 70.3 °F 95% 29.82 in 7.0 mi SSE 4.6 mph - N/A   Scattered Clouds
10:15 PM 71.8 °F - 70.7 °F 96% 29.82 in 7.0 mi Calm Calm - N/A   Mostly Cloudy
10:35 PM 71.8 °F - 70.7 °F 96% 29.81 in 7.0 mi SSE 3.5 mph - N/A   Overcast
10:55 PM 71.6 °F - 70.5 °F 96% 29.81 in 5.0 mi SSE 6.9 mph - 0.02 in   Scattered Clouds
11:15 PM 72.0 °F - 70.3 °F 95% 29.81 in 7.0 mi South 8.1 mph - 0.01 in   Scattered Clouds
11:35 PM 71.8 °F - 70.5 °F 96% 29.81 in 7.0 mi South 8.1 mph - 0.02 in   Mostly Cloudy